User: anonymous   Login
Location: Unspecified
(0.0000°N, 0.0000°E)
Time: 08:26:59
(UTC+00:00)
Language:

FORMOSAT-5 - Orbit

View from above orbital plane
View from above orbital plane
View from above satellite
View from above satellite

Ground track
Ground track

The orbit data is extracted from the following two-line orbital elements,

1 42920U 17049A   19017.19809839 -.00000043  00000-0  54483-6 0  9991
2 42920  98.3433  96.9024 0011660 112.3903 247.8533 14.50827147 74015
Epoch (UTC): 17 January 2019 04:45:15
Eccentricity: 0.0011660
inclination: 98.3433°
perigee height: 714 km
apogee height: 731 km
right ascension of ascending node: 96.9024°
argument of perigee: 112.3903°
revolutions per day: 14.50827147
mean anomaly at epoch: 247.8533°
orbit number at epoch: 7401

The dashed part of the orbit path shows where the satellite is in the earth's shadow,  

DLR